Flag for U.S.A. Weather past 2 weeks in Charleston, South Carolina, U.S.A.

Now
36 °F

Passing clouds.


Feels Like: 36 °F
Forecast: 36 / 64 °F
Wind: No wind

Location: Charleston Air Force Base Reporting Station

Current Time: Feb 1, 2015 at 4:20:41 AM

Latest Report: Feb 1, 2015 at 3:56 AM


Visibility: 10 mi

Pressure: 30.31 "Hg

Humidity: 85%

Dew point: 32 °F

Location of CharlestonLocation

Historic Weather in Charleston — Graph

°F

Charleston temperature yesterday

Maximum temperature yesterday: 55 °F (at 2:56 PM)
Minimum temperature yesterday: 31 °F (at 5:56 AM)
Average temperature yesterday: 42 °F

Past Weeks' High & Low Weather Summary

 TemperatureHumidityPressure
High71 °F (Jan 21, 1:56 PM)100% (Jan 18, 1:56 AM)30.42 "Hg (Jan 18, 1:56 AM)
Low26 °F (Jan 29, 6:56 AM)12% (Jan 31, 3:56 PM)29.55 "Hg (Jan 24, 4:56 AM)
Average49 °F64%30.06 "Hg
* Reported Jan 17 2:56 AM — Feb 1 2:56 AM, Charleston, Weather by CustomWeather, © 2014

Note: Actual official high and low records may vary slightly from our data, if they occured in-between our weather recording intervals... More about our weather records

Advertising

Charleston weather history for previous 24 hours

 ConditionsComfort  
Time TempWeatherWind HumidityBarometerVisibility
2:56 AM
Feb 1
39 °FPassing clouds.No wind76%30.31 "Hg10 mi
1:56 AM41 °FPassing clouds.No wind67%30.31 "Hg10 mi
12:56 AM39 °FPassing clouds.No wind70%30.32 "Hg10 mi
11:56 PM
Jan 31
39 °FPassing clouds.No wind67%30.33 "Hg10 mi
10:56 PM40 °FPassing clouds.No wind63%30.35 "Hg10 mi
9:56 PM40 °FPassing clouds.No wind60%30.36 "Hg10 mi
8:56 PM41 °FPassing clouds.No wind55%30.37 "Hg10 mi
7:56 PM41 °FPassing clouds.6 mph55%30.37 "Hg10 mi
6:56 PM43 °FPassing clouds.3 mph49%30.37 "Hg10 mi
5:56 PM43 °FPassing clouds.7 mph49%30.35 "Hg10 mi
4:56 PM50 °FPassing clouds.N/A36%30.33 "Hg10 mi
3:56 PM55 °FPassing clouds.3 mph12%30.33 "Hg10 mi
2:56 PM55 °FPassing clouds.3 mph14%30.34 "Hg10 mi
1:56 PM54 °FScattered clouds.8 mph15%30.36 "Hg10 mi
12:56 PM52 °FScattered clouds.7 mph16%30.37 "Hg10 mi
11:56 AM50 °FScattered clouds.8 mph17%30.39 "Hg10 mi
10:56 AM48 °FPassing clouds.7 mph20%30.42 "Hg10 mi
9:56 AM43 °FPassing clouds.7 mph27%30.39 "Hg10 mi
8:56 AM39 °FPassing clouds.7 mph36%30.38 "Hg10 mi
7:56 AM33 °FPassing clouds.5 mph49%30.37 "Hg10 mi
6:56 AM31 °FClear.5 mph52%30.35 "Hg10 mi
5:56 AM31 °FClear.6 mph57%30.34 "Hg10 mi
4:56 AM32 °FClear.7 mph54%30.33 "Hg10 mi
Weather by CustomWeather, © 2014

See weather overviewHow to use our weather pages